User: anonymous   Login
Location: Mt. Cuba Astronomical Observatory
(39.8100°N, 75.6300°W)
Time: 13:51:31
(UTC-04:00)
Language:

Cosmos 2058 - Orbit

View from above orbital plane
View from above orbital plane
View from above satellite
View from above satellite

Ground track
Ground track

The orbit data is extracted from the following two-line orbital elements,

1 20465U 90010A   14295.50402141  .00004415  00000-0  39853-3 0  2601
2 20465 082.4890 098.1654 0015383 317.5682 042.4349 14.95223780340436
Epoch (UTC): 22 October 2014 12:05:47
Eccentricity: 0.0015383
inclination: 82.4890°
perigee height: 571 km
apogee height: 592 km
right ascension of ascending node: 98.1654°
argument of perigee: 317.5682°
revolutions per day: 14.95223780
mean anomaly at epoch: 42.4349°
orbit number at epoch: 34043

The dashed part of the orbit path shows where the satellite is in the earth's shadow,  

DLR